Weather History for EGLL - October, 2012

Change the Weather History Date:

Thursday, October 11, 2012

  Actual Average Record
Temperature  
Mean Temperature 54 °F -  
Max Temperature 60 °F 55 °F 71 °F (2005)
Min Temperature 48 °F 43 °F 42 °F (1996)
Degree Days  
Heating Degree Days 11    
Growing Degree Days 4 (Base 50)    
Moisture  
Dew Point 51 °F    
Average Humidity 89    
Maximum Humidity 100    
Minimum Humidity 69    
Precipitation  
Precipitation 0.24 in - - ()
Sea Level Pressure  
Sea Level Pressure 29.64 in    
Wind  
Wind Speed 8 mph ()    
Max Wind Speed 15 mph    
Max Gust Speed -    
Visibility 5.0 miles    
Events Rain    
Averages and records for this station are not official NWS values.
T = Trace of Precipitation, MM = Missing Value Source: Averaged Metar Reports

Daily Weather History Graph

Daily Weather History Graph

Search for Another Location

Airport or City:

Trip Planner

Search our weather history database for the weather conditions in past years. The results will help you decide how hot, cold, wet, or windy it might be!

Date:

Astronomy

Oct. 11, 2012 Rise Set
Actual Time 7:19 AM BST 6:16 PM BST
Civil Twilight 6:46 AM BST 6:49 PM BST
Nautical Twilight 6:07 AM BST 7:28 PM BST
Astronomical Twilight 5:28 AM BST 8:07 PM BST
Moon 2:13 AM BST (10/11) 4:09 PM BST (10/11)
Length of Visible Light 12h 03m
Length of Day
10h 56m
Waning Crescent, 20% of the Moon is Illuminated
Oct 11
Waning Crescent
Oct 15
New
Oct 22
First Quarter
Oct 29
Full
Nov 7
Last Quarter

Hourly Weather History & Observations

Time (BST) Temp. Windchill Dew Point Humidity Pressure Visibility Wind Dir Wind Speed Gust Speed Precip Events Conditions
12:20 AM 50.0 °F - 42.8 °F 76% 29.86 in 6.2 mi East 6.9 mph - N/A   Mostly Cloudy
12:50 AM 49 °F - 42 °F 71% 29.86 in 12 mi East 8.1 mph - -   Partly Cloudy
12:50 AM 48.2 °F - 42.8 °F 82% 29.86 in 6.2 mi East 6.9 mph - N/A   Mostly Cloudy
1:20 AM 46.4 °F 42.9 °F 42.8 °F 87% 29.86 in 6.2 mi East 6.9 mph - N/A   Unknown
1:50 AM 48.2 °F - 42.8 °F 82% 29.83 in 6.2 mi East 5.8 mph - N/A   Mostly Cloudy
2:20 AM 50.0 °F - 44.6 °F 82% 29.83 in 6.2 mi East 6.9 mph - N/A   Overcast
2:50 AM 50.0 °F - 44.6 °F 82% 29.80 in 6.2 mi ESE 10.4 mph - N/A   Mostly Cloudy
3:20 AM 51.8 °F - 44.6 °F 76% 29.80 in 6.2 mi ESE 11.5 mph - N/A   Mostly Cloudy
3:50 AM 52 °F - 45 °F 69% 29.80 in 12 mi ESE 9.2 mph - -   Overcast
3:50 AM 51.8 °F - 44.6 °F 76% 29.80 in 6.2 mi ESE 10.4 mph - N/A   Overcast
4:20 AM 51.8 °F - 44.6 °F 76% 29.77 in 6.2 mi East 9.2 mph - N/A   Overcast
4:50 AM 50.0 °F - 44.6 °F 82% 29.77 in 6.2 mi East 8.1 mph - N/A   Mostly Cloudy
5:20 AM 48.2 °F - 44.6 °F 87% 29.74 in 6.2 mi East 6.9 mph - N/A   Partly Cloudy
5:50 AM 48.2 °F - 44.6 °F 87% 29.74 in - East 8.1 mph - N/A   Clear
6:20 AM 48.2 °F - 44.6 °F 87% 29.74 in 6.2 mi East 9.2 mph - N/A   Scattered Clouds
6:50 AM 50 °F - 45 °F 76% 29.73 in 7 mi East 6.9 mph - -  
6:50 AM 48.2 °F - 44.6 °F 87% 29.71 in 6.2 mi East 8.1 mph - N/A   Scattered Clouds
7:20 AM 48.2 °F - 44.6 °F 87% 29.71 in 6.2 mi East 8.1 mph - N/A   Scattered Clouds
7:50 AM 50.0 °F - 44.6 °F 82% 29.71 in 6.2 mi East 10.4 mph - N/A   Mostly Cloudy
8:20 AM 50.0 °F - 46.4 °F 87% 29.71 in 6.2 mi East 8.1 mph - N/A   Mostly Cloudy
8:50 AM 50.0 °F - 46.4 °F 87% 29.71 in 6.2 mi East 9.2 mph - N/A   Mostly Cloudy
9:20 AM 51.8 °F - 46.4 °F 82% 29.68 in 5.0 mi East 9.2 mph - N/A   Mostly Cloudy
9:50 AM 53 °F - 48 °F 79% 29.69 in 5 mi East 9.2 mph - -   Light Haze
9:50 AM 51.8 °F - 48.2 °F 88% 29.68 in 5.0 mi East 9.2 mph - N/A   Mostly Cloudy
10:20 AM 53.6 °F - 50.0 °F 88% 29.68 in 5.0 mi East 8.1 mph - N/A   Mostly Cloudy
10:50 AM 53.6 °F - 50.0 °F 88% 29.68 in 4.3 mi East 8.1 mph - N/A   Overcast
11:20 AM 53.6 °F - 51.8 °F 94% 29.65 in 1.7 mi East 8.1 mph - N/A Rain Light Rain
11:50 AM 55.4 °F - 53.6 °F 94% 29.65 in - East 8.1 mph - N/A Rain Light Rain
12:20 PM 55.4 °F - 53.6 °F 94% 29.65 in 1.5 mi East 8.1 mph - N/A Rain Rain
12:50 PM 56 °F - 55 °F 94% 29.63 in 1 mi East 6.9 mph - - Rain Light Rain
12:50 PM 55.4 °F - 55.4 °F 100% 29.62 in 1.2 mi East 8.1 mph - N/A Rain Light Rain
1:20 PM 57.2 °F - 55.4 °F 94% 29.62 in 1.1 mi East 8.1 mph - N/A Rain Rain
1:50 PM 57.2 °F - 57.2 °F 100% 29.59 in 2.8 mi East 8.1 mph - N/A   Mostly Cloudy
2:20 PM 59.0 °F - 57.2 °F 94% 29.59 in 3.7 mi ESE 8.1 mph - N/A   Mostly Cloudy
2:50 PM 59.0 °F - 57.2 °F 94% 29.56 in 6.2 mi ESE 11.5 mph - N/A   Mostly Cloudy
3:20 PM 59.0 °F - 55.4 °F 88% 29.56 in 5.6 mi ESE 9.2 mph - N/A   Mostly Cloudy
3:50 PM 58 °F - 57 °F 94% 29.56 in 4 mi ESE 9.2 mph - - Rain Light Rain Showers
3:50 PM 59.0 °F - 57.2 °F 94% 29.56 in 4.3 mi ESE 10.4 mph - N/A Rain Rain
4:20 PM 59.0 °F - 57.2 °F 94% 29.53 in 3.7 mi East 8.1 mph - N/A Rain Light Rain
4:50 PM 59.0 °F - 57.2 °F 94% 29.53 in 2.8 mi East 9.2 mph - N/A Rain Rain
5:20 PM 59.0 °F - 57.2 °F 94% 29.53 in 3.1 mi East 9.2 mph - N/A Rain Rain
5:50 PM 59.0 °F - 57.2 °F 94% 29.50 in 2.5 mi East 9.2 mph - N/A Rain Light Rain
6:20 PM 59.0 °F - 57.2 °F 94% 29.50 in 2.5 mi East 8.1 mph - N/A Rain Light Rain
6:50 PM 59 °F - 58 °F 96% 29.50 in 4 mi ESE 9.2 mph - - Rain Rain
6:50 PM 59.0 °F - 57.2 °F 94% 29.50 in - ESE 10.4 mph - N/A   Mostly Cloudy
7:20 PM 59.0 °F - 59.0 °F 100% 29.50 in 3.1 mi SE 6.9 mph - N/A Rain Light Rain
7:50 PM 59.0 °F - 59.0 °F 100% 29.50 in 5.6 mi SSE 9.2 mph - N/A   Mostly Cloudy
8:20 PM 59.0 °F - 57.2 °F 94% 29.47 in 4.3 mi SSE 9.2 mph - N/A Rain Light Rain
8:50 PM 59.0 °F - 57.2 °F 94% 29.47 in 6.2 mi SSE 9.2 mph - N/A   Mostly Cloudy
9:20 PM 59.0 °F - 57.2 °F 94% 29.47 in 6.2 mi SSE 9.2 mph - N/A   Mostly Cloudy
9:50 PM 60 °F - 57 °F 88% 29.49 in 1 mi South 9.2 mph - - Rain Light Drizzle
9:50 PM 59.0 °F - 57.2 °F 94% 29.47 in 3.1 mi South 9.2 mph - N/A   Light Drizzle
10:20 PM 59.0 °F - 57.2 °F 94% 29.47 in 5.6 mi SSW 9.2 mph - N/A   Scattered Clouds
10:50 PM 59.0 °F - 57.2 °F 94% 29.47 in 6.2 mi SSW 9.2 mph - N/A   Scattered Clouds
11:20 PM 59.0 °F - 57.2 °F 94% 29.47 in 6.2 mi SW 11.5 mph - N/A   Scattered Clouds
11:50 PM 57.2 °F - 55.4 °F 94% 29.50 in 6.2 mi WSW 15.0 mph - N/A   Mostly Cloudy